When you browse on this site, cookies collect data to enhance your experience and personalize the content and advertising you see.
Visit our Privacy Policy to learn more. By continuing to use the site, you agree to this use of cookies and data.
  • In Sweden
  • List of Countries
  • For 7 days
  • Water Temperature
  • Satellite Maps
  • Weather Map
  • Weather Widgets
  • user-avatar
    Login

    Hourly Weather Solnechnyy

    Today, 16 June, Sunday

    Time Temperature Precipitation Wind Pressure Humidity
    00:00 +9°C° 3.2 mm 5 mps 741 mmHg 91%
    01:00 +9°C° 3.2 mm 6 mps 741 mmHg 90%
    02:00 +9°C° 3.2 mm 7 mps 741 mmHg 89%
    03:00 +9°C° 0.6 mm 6 mps 741 mmHg 88%
    04:00 +9°C° 0.6 mm 6 mps 741 mmHg 87%
    05:00 +8°C° 0.6 mm 5 mps 741 mmHg 86%
    06:00 +9°C° 0.2 mm 5 mps 742 mmHg 81%
    07:00 +11°C° 0.2 mm 4 mps 743 mmHg 75%
    08:00 +12°C° 0.2 mm 4 mps 743 mmHg 70%
    09:00 +13°C° 0.1 mm 4 mps 744 mmHg 62%
    10:00 +14°C° 0.1 mm 4 mps 744 mmHg 55%
    11:00 +17°C° 0.1 mm 4 mps 744 mmHg 48%
    12:00 +17°C° 0 mm 4 mps 744 mmHg 46%
    13:00 +18°C° 0 mm 4 mps 745 mmHg 43%
    14:00 +18°C° 0 mm 4 mps 745 mmHg 41%
    15:00 +18°C° 0 mm 4 mps 745 mmHg 39%
    16:00 +19°C° 0 mm 4 mps 745 mmHg 38%
    17:00 +19°C° 0 mm 4 mps 745 mmHg 36%
    18:00 +18°C° 0 mm 3 mps 745 mmHg 41%
    19:00 +17°C° 0 mm 3 mps 745 mmHg 45%
    20:00 +16°C° 0 mm 2 mps 745 mmHg 49%
    21:00 +16°C° 0 mm 3 mps 745 mmHg 50%
    22:00 +16°C° 0 mm 3 mps 745 mmHg 51%
    23:00 +14°C° 0 mm 4 mps 746 mmHg 52%

    Tomorrow, 17 June, Monday

    Time Temperature Precipitation Wind Pressure Humidity
    00:00 +14°C° 0 mm 4 mps 745 mmHg 54%
    01:00 +13°C° 0 mm 4 mps 745 mmHg 55%
    02:00 +13°C° 0 mm 4 mps 745 mmHg 57%
    03:00 +13°C° 0 mm 3 mps 745 mmHg 59%
    04:00 +13°C° 0 mm 3 mps 745 mmHg 62%
    05:00 +13°C° 0 mm 3 mps 745 mmHg 64%
    06:00 +16°C° 0 mm 3 mps 745 mmHg 57%
    07:00 +18°C° 0 mm 3 mps 745 mmHg 51%
    08:00 +19°C° 0 mm 4 mps 745 mmHg 45%
    09:00 +20°C° 0 mm 4 mps 745 mmHg 41%
    10:00 +20°C° 0 mm 4 mps 744 mmHg 38%
    11:00 +21°C° 0 mm 4 mps 744 mmHg 35%
    12:00 +21°C° 0 mm 4 mps 744 mmHg 34%
    13:00 +21°C° 0 mm 4 mps 744 mmHg 34%
    14:00 +22°C° 0 mm 4 mps 743 mmHg 33%
    15:00 +22°C° 0 mm 4 mps 743 mmHg 33%
    16:00 +22°C° 0 mm 5 mps 743 mmHg 34%
    17:00 +22°C° 0 mm 5 mps 742 mmHg 35%
    18:00 +21°C° 0 mm 4 mps 742 mmHg 39%
    19:00 +21°C° 0 mm 4 mps 742 mmHg 43%
    20:00 +20°C° 0 mm 4 mps 742 mmHg 46%
    21:00 +19°C° 0 mm 4 mps 742 mmHg 50%
    22:00 +18°C° 0 mm 4 mps 742 mmHg 54%
    23:00 +16°C° 0 mm 5 mps 741 mmHg 58%

    Day after tomorrow, 18 June, Tuesday

    Time Temperature Precipitation Wind Pressure Humidity
    00:00 +17°C° 0 mm 4 mps 741 mmHg 62%
    01:00 +16°C° 0 mm 3 mps 741 mmHg 66%
    02:00 +15°C° 0 mm 2 mps 741 mmHg 71%
    03:00 +15°C° 0 mm 2 mps 740 mmHg 70%
    04:00 +14°C° 0 mm 3 mps 740 mmHg 70%
    05:00 +14°C° 0 mm 3 mps 740 mmHg 70%
    06:00 +14°C° 0.1 mm 3 mps 740 mmHg 73%
    07:00 +14°C° 0.1 mm 4 mps 740 mmHg 75%
    08:00 +14°C° 0.1 mm 4 mps 739 mmHg 77%
    09:00 +14°C° 0.8 mm 4 mps 739 mmHg 81%
    10:00 +13°C° 0.8 mm 4 mps 739 mmHg 84%
    11:00 +13°C° 0.8 mm 5 mps 739 mmHg 88%
    12:00 +14°C° 1.2 mm 4 mps 739 mmHg 82%
    13:00 +16°C° 1.2 mm 3 mps 739 mmHg 77%
    14:00 +16°C° 1.2 mm 2 mps 739 mmHg 71%
    15:00 +18°C° 0 mm 3 mps 740 mmHg 63%
    16:00 +19°C° 0 mm 4 mps 740 mmHg 55%
    17:00 +20°C° 0 mm 5 mps 740 mmHg 47%
    18:00 +19°C° 0 mm 4 mps 741 mmHg 51%
    19:00 +18°C° 0 mm 4 mps 741 mmHg 54%
    20:00 +17°C° 0 mm 3 mps 742 mmHg 58%
    21:00 +16°C° 0 mm 3 mps 742 mmHg 58%
    22:00 +14°C° 0 mm 3 mps 742 mmHg 57%
    23:00 +14°C° 0 mm 3 mps 743 mmHg 56%

    19 June, Wednesday

    Time Temperature Precipitation Wind Pressure Humidity
    00:00 +13°C° 0 mm 3 mps 743 mmHg 57%
    01:00 +13°C° 0 mm 3 mps 742 mmHg 59%
    02:00 +13°C° 0 mm 2 mps 742 mmHg 60%
    03:00 +12°C° 0 mm 3 mps 743 mmHg 61%
    04:00 +12°C° 0 mm 3 mps 743 mmHg 62%
    05:00 +13°C° 0 mm 3 mps 743 mmHg 63%
    06:00 +14°C° 0 mm 4 mps 743 mmHg 60%
    07:00 +15°C° 0 mm 4 mps 743 mmHg 58%
    08:00 +16°C° 0 mm 5 mps 744 mmHg 55%
    09:00 +17°C° 0.1 mm 5 mps 744 mmHg 54%
    10:00 +19°C° 0.1 mm 5 mps 744 mmHg 52%
    11:00 +20°C° 0.1 mm 5 mps 744 mmHg 50%
    12:00 +20°C° 0.3 mm 5 mps 744 mmHg 50%
    13:00 +20°C° 0.3 mm 6 mps 745 mmHg 50%
    14:00 +20°C° 0.3 mm 6 mps 745 mmHg 50%
    15:00 +20°C° 0 mm 6 mps 745 mmHg 48%
    16:00 +20°C° 0 mm 6 mps 746 mmHg 47%
    17:00 +19°C° 0 mm 6 mps 746 mmHg 45%
    18:00 +17°C° 0 mm 5 mps 747 mmHg 48%
    19:00 +17°C° 0 mm 4 mps 747 mmHg 51%
    20:00 +17°C° 0 mm 3 mps 747 mmHg 54%
    21:00 +16°C° 0 mm 2 mps 748 mmHg 55%
    22:00 +15°C° 0 mm 2 mps 748 mmHg 57%
    23:00 +14°C° 0 mm 2 mps 748 mmHg 59%

    20 June, Thursday

    Time Temperature Precipitation Wind Pressure Humidity
    00:00 +13°C° 0 mm 2 mps 748 mmHg 61%
    01:00 +13°C° 0 mm 1 mps 748 mmHg 62%
    02:00 +12°C° 0 mm 1 mps 748 mmHg 63%
    03:00 +13°C° 0 mm 1 mps 749 mmHg 62%
    04:00 +13°C° 0 mm 2 mps 749 mmHg 60%
    05:00 +14°C° 0 mm 2 mps 749 mmHg 59%
    06:00 +15°C° 0 mm 2 mps 749 mmHg 54%
    07:00 +17°C° 0 mm 2 mps 749 mmHg 49%
    08:00 +18°C° 0 mm 3 mps 749 mmHg 44%
    09:00 +19°C° 0 mm 3 mps 749 mmHg 42%
    10:00 +20°C° 0 mm 2 mps 749 mmHg 40%
    11:00 +21°C° 0 mm 2 mps 749 mmHg 38%
    12:00 +21°C° 0 mm 2 mps 749 mmHg 36%
    13:00 +23°C° 0 mm 2 mps 749 mmHg 35%
    14:00 +24°C° 0 mm 2 mps 748 mmHg 34%
    15:00 +24°C° 0 mm 2 mps 748 mmHg 34%
    16:00 +24°C° 0 mm 1 mps 748 mmHg 34%
    17:00 +24°C° 0 mm 1 mps 748 mmHg 34%
    18:00 +23°C° 0 mm 1 mps 748 mmHg 38%
    19:00 +22°C° 0 mm 1 mps 748 mmHg 43%
    20:00 +21°C° 0 mm 1 mps 748 mmHg 48%
    21:00 +21°C° 0 mm 1 mps 748 mmHg 46%
    22:00 +19°C° 0 mm 2 mps 748 mmHg 45%
    23:00 +18°C° 0 mm 3 mps 747 mmHg 43%

    21 June, Friday

    Time Temperature Precipitation Wind Pressure Humidity
    00:00 +18°C° 0 mm 3 mps 747 mmHg 44%
    01:00 +17°C° 0 mm 3 mps 747 mmHg 45%
    02:00 +17°C° 0 mm 3 mps 747 mmHg 45%
    03:00 +17°C° 0 mm 2 mps 747 mmHg 47%
    04:00 +17°C° 0 mm 2 mps 747 mmHg 49%
    05:00 +17°C° 0 mm 2 mps 747 mmHg 50%
    06:00 +18°C° 0 mm 2 mps 747 mmHg 46%
    07:00 +20°C° 0 mm 2 mps 747 mmHg 42%
    08:00 +21°C° 0 mm 3 mps 747 mmHg 38%
    09:00 +22°C° 0 mm 3 mps 746 mmHg 36%
    10:00 +24°C° 0 mm 3 mps 746 mmHg 34%
    11:00 +25°C° 0 mm 3 mps 746 mmHg 32%
    12:00 +25°C° 0 mm 3 mps 745 mmHg 31%
    13:00 +26°C° 0 mm 2 mps 745 mmHg 29%
    14:00 +27°C° 0 mm 2 mps 744 mmHg 28%
    15:00 +27°C° 0 mm 2 mps 744 mmHg 28%
    16:00 +27°C° 0 mm 1 mps 743 mmHg 28%
    17:00 +27°C° 0 mm 1 mps 743 mmHg 28%
    18:00 +26°C° 0 mm 1 mps 743 mmHg 33%
    19:00 +25°C° 0 mm 2 mps 743 mmHg 37%
    20:00 +24°C° 0 mm 3 mps 743 mmHg 41%
    21:00 +22°C° 0 mm 3 mps 743 mmHg 47%
    22:00 +23°C° 0 mm 2 mps 743 mmHg 54%
    23:00 +21°C° 0 mm 2 mps 743 mmHg 60%
    Show more